Back to catalog

COSMOS 1732

AliveMilitaryLEO
NORAD 16593·PAYLOAD·🇷🇺 Russia

Launched Feb 11, 1986 from Plesetsk Cosmodrome

Loading…

Next Passes (next 24 hours)

TLE

FreshSource: Space-Track

Epoch: Sep 14, 2026, 12:31 UTC

1 16593U 86015A   26257.52220704 -.00000006  00000-0  81418-4 0  9991
2 16593  73.6116 185.6391 0027298 297.3535  62.4731 12.41027946838902

Track COSMOS 1732 in real time with AllMySat

Download on the App Store